This is the latest recevied weather packets stored in our database for station/object W6SNO-1. If no packets are shown the sender has not sent any weather packets the latest 10 day(s).
| Time | Temp. | Humidity | Pressure | Rain* | Wind** | Luminosity | Snow |
|---|---|---|---|---|---|---|---|
| 1778250021 | 11.67° C | 85% | 1019.2 hPa | 0 mm | - | 40 W/m² | - |
| 1778249717 | 12.22° C | 85% | 1019 hPa | 0 mm | - | 39 W/m² | - |
| 1778249415 | 11.67° C | 85% | 1019.3 hPa | 0 mm | - | 34 W/m² | - |
| 1778249112 | 11.67° C | 85% | 1019.1 hPa | 0 mm | - | 34 W/m² | - |
| 1778248808 | 11.67° C | 85% | 1019.1 hPa | 0 mm | - | 26 W/m² | - |
| 1778248504 | 11.67° C | 85% | 1019 hPa | 0 mm | - | 23 W/m² | - |
| 1778248200 | 12.22° C | 86% | 1019 hPa | 0 mm | - | 18 W/m² | - |
| 1778247897 | 12.22° C | 86% | 1019 hPa | 0 mm | - | 14 W/m² | - |
| 1778247594 | 11.67° C | 86% | 1018.8 hPa | 0 mm | - | 11 W/m² | - |
| 1778247291 | 12.22° C | 86% | 1018.7 hPa | 0 mm | - | 9 W/m² | - |
| 1778246988 | 12.22° C | 86% | 1018.8 hPa | 0 mm | - | 6 W/m² | - |
| 1778246686 | 11.67° C | 87% | 1018.5 hPa | 0 mm | - | 6 W/m² | - |
| 1778246382 | 11.67° C | 87% | 1018.7 hPa | 0 mm | - | 4 W/m² | - |
| 1778246078 | 11.67° C | 87% | 1018.5 hPa | 0 mm | - | 3 W/m² | - |
| 1778245775 | 11.67° C | 87% | 1018.6 hPa | 0 mm | - | 2 W/m² | - |
| 1778245472 | 11.67° C | 87% | 1018.8 hPa | 0 mm | - | 1 W/m² | - |
| 1778245167 | 11.67° C | 87% | 1018.5 hPa | 0 mm | - | 0 W/m² | - |
| 1778244864 | 12.22° C | 87% | 1018.7 hPa | 0 mm | - | 0 W/m² | - |
| 1778244562 | 11.67° C | 87% | 1018.7 hPa | 0 mm | - | 0 W/m² | - |
| 1778244260 | 11.67° C | 87% | 1018.8 hPa | 0 mm | - | 0 W/m² | - |
| 1778243957 | 11.67° C | 87% | 1018.7 hPa | 0 mm | - | 0 W/m² | - |
| 1778243655 | 11.67° C | 87% | 1018.9 hPa | 0 mm | - | 0 W/m² | - |
| 1778243351 | 11.67° C | 88% | 1019 hPa | 0 mm | - | 0 W/m² | - |
| 1778243049 | 11.67° C | 88% | 1019 hPa | 0 mm | - | 0 W/m² | - |
| 1778242745 | 11.67° C | 88% | 1018.8 hPa | 0 mm | - | 0 W/m² | - |
* Rain latest hour (hover to see other rain measurements)
** Current wind speed in m/s (hover to see current wind gust speed)